Location: Sungai Apap
(2.6167°N, 113.3833°E)
Time: 14:45:23
(UTC+00:00)

ATLAS 2AS CENTAUR R/B - Pass Details

Date: 25 May 2024
Orbit: 1017 x 1194 km, 63.7° (Epoch: 11 June)

Event Time Altitude Azimuth Distance (km) Brightness Sun altitude
Rises 20:01:09 0° 357° (N) 3,759 5.8 -31.7°
Reaches altitude 10° 20:04:08 10° 8° (N) 2,798 5.3 -31.1°
Maximum altitude 20:09:41 29° 66° (ENE) 1,763 4.4 -29.8°
Drops below altitude 10° 20:15:14 10° 124° (SE) 2,807 5.2 -28.6°
Sets 20:18:13 0° 135° (SE) 3,772 5.8 -27.9°
